User: anonymous   Login
Location: Unspecified
(0.0000°N, 0.0000°E)
Time: 07:09:43
(UTC+00:00)
Language:

USA 48 - Orbit

View from above orbital plane
View from above orbital plane
View from above satellite
View from above satellite

Ground track
Ground track

The orbit data is extracted from the following two-line orbital elements,

1 20355U 89090B   18170.65198321 0.00000000  00000-0  00000-0 0    06
2 20355  18.2385  11.0735 0281377  31.3242 330.3342  1.00737100    01
Epoch (UTC): 19 June 2018 15:38:51
Eccentricity: 0.0281377
inclination: 18.2385°
perigee height: 34473 km
apogee height: 36839 km
right ascension of ascending node: 11.0735°
argument of perigee: 31.3242°
revolutions per day: 1.00737100
mean anomaly at epoch: 330.3342°
orbit number at epoch: 0

The dashed part of the orbit path shows where the satellite is in the earth's shadow,  

DLR